This demonstration page uses our WeatherBlox Daily Observations layout. Learn more.

Left ArrowRight Arrow

38.20091, -84.87328

Hourly Observations for August 14, 2017

Temp ( °F °C ) Dew Point ( °F °C ) Humidity (%) Winds ( mph kmh ) Pressure ( in mb ) Visibility ( mi km ) Precip ( " mm )
12:53 am 00:53 Clear 72 22.2 59 15 64 64 ESE 5 7 29.94 1014 10 16 0.00 0.00
1:53 am 01:53 Clear 71 21.7 59 15 66 66 E 5 7 29.92 1013 10 16 0.00 0.00
2:53 am 02:53 Partly Cloudy 71 21.7 59 15 66 66 Calm 29.92 1013 10 16 0.00 0.00
3:53 am 03:53 Mostly Cloudy 70 21.1 60 15.6 71 71 Calm 29.93 1013 10 16 0.00 0.00
4:53 am 04:53 Cloudy 70 21.1 61 16.1 73 73 ENE 3 6 29.92 1013 10 16 0.00 0.00
5:53 am 05:53 Mostly Cloudy 69 20.6 61 16.1 76 76 E 3 6 29.91 1013 10 16 0.00 0.00
6:53 am 06:53 Cloudy with Light Rain 69 20.6 62 16.7 78 78 Calm 29.93 1014 10 16 0.00 0.03
7:53 am 07:53 Cloudy with Light Rain 68 20 64 17.8 87 87 S 5 7 29.94 1014 4 6 0.06 1.52
8:05 am 08:05 Cloudy with Heavy Rain 68 20 65 18.3 90 90 S 6 9 29.94 1014 2 3 0.04 1.02
8:18 am 08:18 Cloudy with Light Rain 69 20.6 65 18.3 87 87 S 6 9 29.94 1014 3 5 0.05 1.27
8:53 am 08:53 Cloudy with Mist and Fog 69 20.6 66 18.9 90 90 SSE 6 9 29.94 1014 6 10 0.06 1.52
9:53 am 09:53 Cloudy 70 21.1 67 19.4 90 90 SE 5 7 29.93 1014 7 11 0.02 0.51
10:53 am 10:53 Mostly Cloudy 72 22.2 69 20.6 91 91 SE 7 11 29.92 1013 10 16 0.01 0.25
11:53 am 11:53 Cloudy 74 23.3 68 20 82 82 SE 7 11 29.90 1013 10 16 0.00 0.00
12:53 pm 12:53 Cloudy 76 24.4 68 20 77 77 SSW 9 15 29.91 1013 10 16 0.00 0.00
1:53 pm 13:53 Cloudy 77 25 67 19.4 71 71 SW 6 9 29.91 1013 10 16 0.00 0.00
2:53 pm 14:53 Cloudy 81 27.2 69 20.6 67 67 SW 3 6 29.90 1013 10 16 0.00 0.00
3:53 pm 15:53 Mostly Sunny 82 27.8 69 20.6 65 65 SSW 6 9 29.87 1011 10 16 0.00 0.00
4:53 pm 16:53 Mostly Cloudy 82 27.8 68 20 63 63 Calm 29.85 1011 10 16 0.00 0.00
5:53 pm 17:53 Partly Cloudy 83 28.3 67 19.4 59 59 Calm 29.83 1010 10 16 0.00 0.00
6:53 pm 18:53 Cloudy 79 26.1 68 20 69 69 SSW 10 17 29.83 1010 10 16 0.00 0.00
7:00 pm 19:00 Cloudy with Light Rain 77 25 69 20.6 77 77 W 7 11 29.83 1010 2 3 0.05 1.27
7:02 pm 19:02 Cloudy with Heavy Rain 76 24.4 69 20.6 79 79 W 5 7 29.83 1010 1 2 0.09 2.29
7:10 pm 19:10 Cloudy with Heavy Rain 75 23.9 69 20.6 82 82 Calm 29.83 1010 1 1 0.13 3.30
7:12 pm 19:12 Cloudy with Rain 75 23.9 69 20.6 82 82 Calm 29.83 1010 1 2 0.14 3.56
7:15 pm 19:15 Cloudy with Rain 75 23.9 70 21.1 84 84 Calm 29.83 1010 2 3 0.14 3.56
7:24 pm 19:24 Cloudy 76 24.4 71 21.7 85 85 N 3 6 29.83 1010 10 16 0.14 3.56
7:53 pm 19:53 Cloudy 76 24.4 70 21.1 82 82 Calm 29.84 1010 10 16 0.14 3.56
8:53 pm 20:53 Mostly Cloudy 75 23.9 70 21.1 84 84 E 3 6 29.83 1010 10 16 0.00 0.00
9:53 pm 21:53 Partly Cloudy 73 22.8 70 21.1 90 90 Calm 29.84 1011 7 11 0.00 0.00
10:53 pm 22:53 Cloudy 74 23.3 71 21.7 91 91 Calm 29.85 1011 10 16 0.00 0.00
11:53 pm 23:53 Mostly Cloudy with Mist and Fog 73 22.8 70 21.1 90 90 Calm 29.85 1011 5 8 0.00 0.00

Powered by AerisWeather